Location: Unspecified
(0.0000°N, 0.0000°E)
Time: 01:42:03
(UTC+02:00)

Delta 168 - Visible Passes

Search period start: 26 August 2016 00:00
Search period end: 05 September 2016 00:00
Orbit: 394 x 2072 km, 25.3° (Epoch: 25 August)

Date Brightness Start Highest point End Pass type
(mag) Time Alt. Az. Time Alt. Az. Time Alt. Az.
26 Aug 5.8 05:09:26 24° ENE 05:09:26 24° ENE 05:11:27 10° ENE visible
26 Aug 5.2 06:59:31 15° WNW 07:02:26 20° NNW 07:06:03 10° NNE visible
26 Aug 6.8 20:44:25 10° SW 20:51:49 21° S 21:00:26 10° SE visible
26 Aug 6.9 22:45:50 10° SW 22:52:34 19° S 22:52:34 19° S visible
27 Aug 6.1 05:00:19 21° NE 05:00:19 21° NE 05:02:00 10° NE visible
27 Aug 5.4 06:50:24 16° WNW 06:52:47 19° NNW 06:56:29 10° NNE visible
27 Aug 6.8 20:35:17 10° SW 20:42:08 19° S 20:50:06 10° SE visible
27 Aug 6.9 22:36:08 10° SW 22:43:14 19° S 22:43:14 19° S visible
28 Aug 6.3 04:51:09 18° NE 04:51:09 18° NE 04:52:31 10° NE visible
28 Aug 5.6 06:41:13 16° NW 06:43:08 18° NNW 06:46:55 10° N visible
28 Aug 6.8 20:26:13 10° SW 20:32:28 18° S 20:39:46 10° SE visible
28 Aug 6.8 22:26:24 10° SSW 22:33:55 20° S 22:33:55 20° S visible
29 Aug 6.5 04:41:58 15° NE 04:41:58 15° NE 04:42:59 10° NE visible
29 Aug 5.8 06:32:02 16° NW 06:33:27 17° NNW 06:37:21 10° N visible
29 Aug 6.8 20:17:11 10° SW 20:22:50 16° S 20:29:24 10° SSE visible
29 Aug 6.7 22:16:39 10° SSW 22:24:35 20° S 22:24:35 20° S visible
30 Aug 6.7 04:32:44 13° NE 04:32:44 13° NE 04:33:24 10° NE visible
30 Aug 5.9 06:22:47 16° NW 06:23:47 17° NNW 06:27:45 10° N visible
30 Aug 6.8 20:08:12 10° SSW 20:13:14 15° S 20:19:02 10° SSE visible
30 Aug 6.7 22:06:54 10° SSW 22:14:51 21° SSE 22:15:15 21° SSE visible
31 Aug 7.4 00:04:54 10° SW 00:05:18 11° SW 00:05:18 11° SW visible
31 Aug 6.9 04:23:27 12° NE 04:23:27 12° NE 04:23:47 10° NE visible
31 Aug 6.1 06:13:30 16° NNW 06:14:06 16° NNW 06:18:10 10° N visible
31 Aug 6.6 21:57:08 10° SSW 22:05:03 21° SSE 22:05:56 21° SSE visible
31 Aug 7.3 23:54:45 10° SW 23:55:59 14° SW 23:55:59 14° SW visible
01 Sep 6.2 06:04:11 16° NNW 06:04:25 16° NNW 06:08:35 10° N visible
01 Sep 6.5 21:47:22 10° SSW 21:55:13 22° SSE 21:56:38 21° SSE visible
01 Sep 7.1 23:44:38 10° SW 23:46:42 17° SW 23:46:42 17° SW visible
02 Sep 6.3 05:54:50 15° NNW 05:54:50 15° NNW 05:59:01 10° N visible
02 Sep 6.5 21:37:36 10° SSW 21:45:22 23° SSE 21:47:22 22° SSE visible
02 Sep 6.9 23:34:33 10° SW 23:37:25 20° SW 23:37:25 20° SW visible
03 Sep 6.4 05:45:26 15° NNW 05:45:26 15° NNW 05:49:27 10° N visible
03 Sep 6.4 21:27:50 10° SSW 21:35:31 23° SSE 21:38:07 22° SE visible
03 Sep 6.7 23:24:32 10° SW 23:28:12 24° SW 23:28:12 24° SW visible
04 Sep 6.5 05:36:03 15° NNW 05:36:03 15° NNW 05:39:54 10° NNE visible
04 Sep 6.3 21:18:04 10° SSW 21:25:38 24° SSE 21:28:56 21° SE visible
04 Sep 6.5 23:14:33 10° SW 23:19:01 28° SW 23:19:01 28° SW visible
